Hourly Weather Roundup
Issued by NWS Central Illinois

Home | Current Version | Previous Version | Text Only | Print | Product List | Glossary On
Versions: 1 2 3 4 5 6 7 8 9 10 11 12 13 14 15 16 17 18 19 20 21 22 23 24 25 26 27 28 29 30 31 32 33 34 35 36 37 38 39 40 41 42 43 44 45 46 47 48 49 50
000
NZUS43 KILX 061410
HWRILX

AREA WEATHER ROUNDUP
NATIONAL WEATHER SERVICE, LINCOLN IL
800 AM CST TUE DEC 06 2016


CITY           SKY/WX    TMP DP  RH WIND       PRES   REMARKS
BLOOMINGTON    FOG       31  30  96 N13       29.78R VSB 1/2 WCI  21
CHAMPAIGN      CLOUDY    36  33  89 NW9       29.75R FOG     WCI  29
DANVILLE       CLOUDY    35  33  93 NW3       29.70S
DECATUR        CLOUDY    36  34  92 N6        29.77R FOG     WCI  31
EFFINGHAM      CLOUDY    39  38  97 W8        29.77R WCI  34
FLORA          CLOUDY    41  39  93 NW10      29.75R FOG     WCI  35
GALESBURG      FOG       33  33 100 CALM      29.80S VSB<1/4
JACKSONVILLE   CLOUDY    34  33  96 NW8       29.82R FOG     WCI  27
LACON          CLOUDY    32  32 100 CALM      29.80S FOG
LAWRENCEVILLE  LGT RAIN  40  37  89 NE8       29.71S FOG     WCI  34
LITCHFIELD     CLOUDY    34  34  99 NW10      29.80R FOG     WCI  26
$$


CITY           SKY/WX    TMP DP  RH WIND       PRES   REMARKS
LINCOLN        CLOUDY    34  33  99 NW6       29.80R FOG     WCI  29
MACOMB         FOG       35  35 100 NW7       29.83S VSB 1   WCI  29
MATTOON        CLOUDY    37  34  89 NW10      29.74R FOG     WCI  30
MT CARMEL AP   LGT RAIN  40  38  93 NE6       29.69F
OLNEY-NOBLE AP CLOUDY    37  37 100 CALM      29.72R FOG
PARIS          CLOUDY    37  36  94 CALM      29.72S
PEORIA         FOG       33  33 100 VRB5      29.80S VSB 1/2 WCI  29
PONTIAC        FOG       32  32 100 N5        29.78F VSB 1   WCI  27
RANTOUL        CLOUDY    35  34  96 NW6       29.75S FOG     WCI  30
SPRINGFIELD    CLOUDY    35  33  92 NW8       29.80S FOG     WCI  29
TAYLORVILLE    CLOUDY    34  33  96 NW6       29.79R FOG     WCI  29
$$

...REGIONAL REPORTS...


CITY           SKY/WX    TMP DP  RH WIND       PRES   REMARKS
CHICAGO O`HARE CLOUDY    32  32 100 N5        29.78S FOG     WCI  27
KANKAKEE       CLOUDY    32  30  94 CALM      29.79R FOG
MOLINE         FOG       34  32  92 CALM      29.80S VSB 1/4
MOUNT STERLING CLOUDY    34  33  98 NW7       29.81R FOG     WCI  28
MOUNT VERNON   NOT AVBL
PITTSFIELD     CLOUDY    36  34  94 N9G16     29.84R FOG     WCI  29
QUINCY         FOG       35  35 100 NW7       29.82R VSB 3/4 WCI  29
ROCKFORD       FOG       33  32  96 CALM      29.82F VSB 1/8
$$


CITY           SKY/WX    TMP DP  RH WIND       PRES   REMARKS
BURLINGTON     CLOUDY    35  35 100 W3        29.81S FOG
CEDAR RAPIDS   CLOUDY    32  31  96 W16       29.81R WCI  21
DES MOINES     PTCLDY    28  18  66 NW17      29.90R WCI  16
KIRKSVILLE     CLOUDY    35  31  85 NW16      29.88R WCI  25
OTTUMWA        CLOUDY    33  27  78 NW16G23   29.85R WCI  23
ST LOUIS       CLOUDY    39  34  82 NW9       29.82R WCI  33
$$


CITY           SKY/WX    TMP DP  RH WIND       PRES   REMARKS
TERRE HAUTE    LGT RAIN  38  35  89 E6        29.70F WCI  33
EVANSVILLE     RAIN      42  40  92 N3        29.71R FOG
INDIANAPOLIS   LGT RAIN  38  35  89 N5        29.71R FOG     WCI  34
LAFAYETTE      CLOUDY    34  32  92 E12       29.71F FOG     WCI  25
MADISON        CLOUDY    32  30  92 SW6       29.79F FOG     WCI  26
MILWAUKEE      MOCLDY    37  33  85 SE7       29.79F WCI  32
$$





USA.gov is the U.S. government's official web portal to all federal, state and local government web resources and services.